Simultaneous Nadir Overpasses (SNOs) Predictions

Prediction of SNOs between AQUA and TERRA Satellite Orbit:

Table of predicted SNOs for the next 14.0 days since TLE Epoch: 9/12/2025
Index Date (AQUA) Time (AQUA) Lat,Lon (AQUA) SZA (AQUA ) Date (TERRA) Time (TERRA) Lat,Lon (TERRA) SZA (TERRA ) Distance(km) Time Diff (sec)
1 09/12/2025 22:53:44 -77.97, 16.34 105.90 09/12/2025 22:53:13 -77.97, 16.33 105.90 0.35 31
2 09/12/2025 23:43:02 77.95,-175.89 74.10 09/12/2025 23:42:31 77.95,-176.07 74.10 4.34 31
3 09/13/2025 00:32:19 -77.95, -8.23 105.89 09/13/2025 00:31:51 -77.98, -8.30 105.86 3.21 28
4 09/13/2025 01:21:38 77.98, 159.34 74.16 09/13/2025 01:21:09 77.96, 159.30 74.14 2.19 29
5 09/13/2025 02:10:55 -77.98, -33.00 105.83 09/13/2025 02:10:29 -77.99, -32.93 105.83 1.70 26
6 09/13/2025 03:00:13 77.96, 134.77 74.17 09/13/2025 02:59:47 77.97, 134.66 74.17 2.43 26
7 09/13/2025 03:49:30 -77.97, -57.57 105.82 09/13/2025 03:49:07 -77.99, -57.56 105.80 2.99 23
8 09/13/2025 04:38:49 77.99, 109.99 74.22 09/13/2025 04:38:25 77.97, 110.03 74.20 2.04 24
9 09/13/2025 05:28:06 -77.99, -82.35 105.77 09/13/2025 05:27:45 -78.00, -82.19 105.76 3.66 21
10 09/13/2025 06:17:24 77.97, 85.42 74.23 09/13/2025 06:17:03 77.98, 85.40 74.24 0.85 21
11 09/13/2025 07:06:41 -77.98,-106.92 105.76 09/13/2025 07:06:24 -77.96,-107.02 105.78 2.96 17
12 09/13/2025 07:56:00 78.00, 60.64 74.28 09/13/2025 07:55:41 77.99, 60.77 74.27 3.37 19
13 09/13/2025 08:45:16 -77.96,-131.49 105.75 09/13/2025 08:45:02 -77.97,-131.65 105.74 3.84 14
14 09/13/2025 09:34:35 77.99, 36.07 74.29 09/13/2025 09:34:19 77.99, 36.14 74.30 1.83 16
15 09/13/2025 10:23:52 -77.99,-156.26 105.69 09/13/2025 10:23:40 -77.97,-156.28 105.71 1.60 12
16 09/13/2025 11:13:10 77.97, 11.50 74.30 09/13/2025 11:12:57 78.00, 11.51 74.34 3.45 13
17 09/13/2025 12:02:27 -77.97, 179.17 105.68 09/13/2025 12:02:18 -77.98, 179.09 105.68 2.06 9
18 09/13/2025 12:51:46 78.00, -13.27 74.36 09/13/2025 12:51:35 78.01, -13.12 74.37 3.72 11
19 09/13/2025 13:41:03 -78.00, 154.39 105.63 09/13/2025 13:40:56 -77.99, 154.46 105.64 2.04 7
20 09/13/2025 14:30:21 77.98, -37.84 74.37 09/13/2025 14:30:14 77.97, -37.95 74.36 2.82 7
21 09/13/2025 15:19:37 -77.98, 129.82 105.62 09/13/2025 15:19:33 -77.99, 129.83 105.61 1.21 4
22 09/13/2025 16:08:56 78.01, -62.62 74.42 09/13/2025 16:08:51 77.98, -62.58 74.39 3.88 5
23 09/13/2025 16:58:13 -78.01, 105.05 105.57 09/13/2025 16:58:11 -78.00, 105.20 105.58 3.70 2
24 09/13/2025 17:47:31 77.99, -87.19 74.43 09/13/2025 17:47:29 77.98, -87.21 74.42 1.34 2
25 09/13/2025 18:36:48 -78.00, 80.48 105.56 09/13/2025 18:36:49 -78.01, 80.57 105.54 2.56 1
26 09/13/2025 19:26:06 77.98,-111.76 74.44 09/13/2025 19:26:07 77.99,-111.84 74.45 2.23 1
27 09/13/2025 20:15:23 -77.98, 55.91 105.55 09/13/2025 20:15:28 -77.97, 55.74 105.56 3.98 5
28 09/13/2025 21:04:42 78.01,-136.54 74.50 09/13/2025 21:04:45 78.00,-136.47 74.49 1.90 3
29 09/13/2025 21:53:59 -78.01, 31.13 105.49 09/13/2025 21:54:06 -77.98, 31.11 105.52 3.44 7
30 09/13/2025 22:43:17 77.99,-161.11 74.51 09/13/2025 22:43:23 78.00,-161.10 74.52 1.38 6
31 09/13/2025 23:32:34 -77.99, 6.56 105.48 09/13/2025 23:32:44 -77.98, 6.48 105.49 2.05 10
32 09/14/2025 00:21:53 78.02, 174.11 74.56 09/14/2025 00:22:01 78.01, 174.26 74.55 3.67 8
33 09/14/2025 01:11:10 -78.02, -18.22 105.43 09/14/2025 01:11:22 -77.99, -18.15 105.46 3.57 12
34 09/14/2025 02:00:28 78.00, 149.54 74.57 09/14/2025 02:00:39 78.02, 149.63 74.59 2.61 11
35 09/14/2025 02:49:45 -78.00, -42.79 105.42 09/14/2025 02:50:00 -78.00, -42.78 105.42 0.75 15
36 09/14/2025 03:39:03 77.99, 124.97 74.58 09/14/2025 03:39:18 77.98, 124.80 74.57 3.98 15
37 09/14/2025 04:28:20 -77.99, -67.36 105.41 09/14/2025 04:28:38 -78.00, -67.41 105.39 2.15 18
38 09/14/2025 05:17:39 78.01, 100.19 74.64 09/14/2025 05:17:56 77.98, 100.17 74.61 3.44 17
39 09/14/2025 06:06:56 -78.02, -92.14 105.35 09/14/2025 06:07:16 -78.01, -92.04 105.36 2.21 20
40 09/14/2025 06:56:14 78.00, 75.62 74.65 09/14/2025 06:56:34 77.99, 75.54 74.64 2.06 20
41 09/14/2025 07:45:31 -78.00,-116.71 105.34 09/14/2025 07:45:54 -78.02,-116.67 105.32 2.06 23
42 09/14/2025 08:34:49 77.98, 51.05 74.66 09/14/2025 08:35:12 78.00, 50.91 74.67 3.57 23
43 09/14/2025 09:24:07 -78.03,-141.48 105.29 09/14/2025 09:24:32 -78.02,-141.31 105.29 4.16 25
44 09/14/2025 10:13:25 78.01, 26.27 74.71 09/14/2025 10:13:50 78.00, 26.28 74.71 0.87 25
45 09/14/2025 11:02:42 -78.01,-166.06 105.28 09/14/2025 11:03:10 -78.03,-165.94 105.26 3.44 28
46 09/14/2025 11:52:00 78.00, 1.70 74.72 09/14/2025 11:52:28 78.01, 1.65 74.74 2.01 28
47 09/14/2025 12:41:17 -78.00, 169.37 105.27 09/14/2025 12:41:49 -77.99, 169.24 105.27 3.23 32
48 09/14/2025 13:30:36 78.02, -23.08 74.78 09/14/2025 13:31:06 78.02, -22.98 74.77 2.33 30
49 09/14/2025 14:19:53 -78.02, 144.60 105.21 09/14/2025 14:20:27 -78.00, 144.60 105.24 2.81 34
50 09/14/2025 15:09:11 78.01, -47.65 74.79 09/14/2025 15:09:44 78.02, -47.61 74.81 1.88 33
51 09/14/2025 15:58:28 -78.01, 120.03 105.20 09/14/2025 15:59:05 -78.01, 119.97 105.20 1.23 37
52 09/14/2025 16:47:46 77.99, -72.22 74.80 09/14/2025 16:48:22 78.03, -72.25 74.84 4.18 36
53 09/14/2025 17:37:03 -77.99, 95.45 105.19 09/14/2025 17:37:43 -78.01, 95.34 105.17 3.33 40
54 09/14/2025 18:26:22 78.02, -97.00 74.85 09/14/2025 18:27:00 78.04, -96.88 74.87 3.35 38
55 09/14/2025 19:15:39 -78.02, 70.68 105.14 09/14/2025 19:16:21 -78.02, 70.71 105.14 0.86 42
56 09/14/2025 20:04:57 78.00,-121.57 74.87 09/14/2025 20:05:39 78.00,-121.71 74.86 3.23 42
57 09/14/2025 20:54:14 -78.01, 46.10 105.13 09/14/2025 20:54:59 -78.03, 46.08 105.10 2.30 45
58 09/14/2025 21:43:33 78.03,-146.35 74.92 09/14/2025 21:44:17 78.00,-146.34 74.89 3.22 44
59 09/14/2025 22:32:50 -78.03, 21.33 105.07 09/14/2025 22:33:37 -78.03, 21.45 105.07 2.86 47
60 09/14/2025 23:22:08 78.02,-170.92 74.93 09/14/2025 23:22:55 78.01,-170.97 74.92 1.33 47
61 09/15/2025 00:11:25 -78.02, -3.25 105.06 09/15/2025 00:12:15 -78.04, -3.18 105.04 2.76 50
62 09/15/2025 01:00:43 78.00, 164.51 74.94 09/15/2025 01:01:33 78.02, 164.40 74.96 2.98 50
63 09/15/2025 01:50:00 -78.00, -27.82 105.05 09/15/2025 01:50:54 -78.00, -28.01 105.05 4.48 54
64 09/15/2025 02:39:19 78.03, 139.73 75.00 09/15/2025 02:40:11 78.02, 139.77 74.99 1.21 52
65 09/15/2025 03:28:36 -78.03, -52.60 105.00 09/15/2025 03:29:32 -78.01, -52.64 105.02 2.79 56
66 09/15/2025 04:17:54 78.01, 115.15 75.01 09/15/2025 04:18:49 78.03, 115.14 75.02 1.75 55
67 09/15/2025 05:07:11 -78.01, -77.17 104.98 09/15/2025 05:08:10 -78.01, -77.27 104.98 2.44 59
68 09/15/2025 05:56:30 78.04, 90.37 75.06 09/15/2025 05:57:27 78.04, 90.50 75.06 3.09 57
69 09/15/2025 06:45:47 -78.04,-101.95 104.93 09/15/2025 06:46:48 -78.02,-101.90 104.95 2.69 61
70 09/15/2025 07:35:05 78.03, 65.80 75.07 09/15/2025 07:36:05 78.04, 65.87 75.09 2.37 60
71 09/15/2025 08:24:22 -78.03,-126.52 104.92 09/15/2025 08:25:26 -78.03,-126.54 104.92 0.41 64
72 09/15/2025 09:13:40 78.01, 41.23 75.08 09/15/2025 09:14:43 78.05, 41.24 75.12 4.14 63
73 09/15/2025 10:02:57 -78.01,-151.09 104.91 09/15/2025 10:04:04 -78.03,-151.17 104.89 2.95 67
74 09/15/2025 10:52:16 78.04, 16.45 75.14 09/15/2025 10:53:22 78.01, 16.41 75.11 3.42 66
75 09/15/2025 11:41:33 -78.04,-175.87 104.85 09/15/2025 11:42:42 -78.04,-175.80 104.85 1.64 69
76 09/15/2025 12:30:51 78.03, -8.12 75.15 09/15/2025 12:32:00 78.02, -8.22 75.14 2.44 69
77 09/15/2025 13:20:08 -78.02, 159.56 104.84 09/15/2025 13:21:20 -78.05, 159.57 104.82 2.42 72
78 09/15/2025 14:09:27 78.05, -32.90 75.20 09/15/2025 14:10:38 78.02, -32.85 75.18 3.50 71
79 09/15/2025 14:58:46 -78.14, 134.36 104.70 09/15/2025 14:59:57 -78.10, 135.14 104.74 18.43 71
80 09/15/2025 15:48:04 78.12, -57.90 75.30 09/15/2025 15:49:15 78.08, -57.29 75.26 15.07 71
81 09/15/2025 16:37:24 -78.25, 109.15 104.56 09/15/2025 16:38:32 -78.24, 111.12 104.57 44.60 68
82 09/15/2025 17:26:42 78.24, -83.11 75.44 09/15/2025 17:27:50 78.22, -81.31 75.43 40.95 68
83 09/15/2025 18:16:02 -78.36, 83.93 104.42 09/15/2025 18:17:08 -78.33, 86.90 104.44 66.82 66
84 09/15/2025 19:05:19 78.35,-108.33 75.58 09/15/2025 19:06:25 78.31,-105.53 75.55 63.30 66
85 09/15/2025 19:54:40 -78.51, 58.47 104.24 09/15/2025 19:55:42 -78.47, 62.90 104.27 98.37 62
86 09/15/2025 20:43:57 78.46,-133.57 75.72 09/15/2025 20:45:00 78.45,-129.52 75.72 90.00 63



Historial Predications of SNOs between AQUA and TERRA
